This is the latest recevied weather packets stored in our database for station/object DM4WH-13. If no packets are shown the sender has not sent any weather packets the latest 10 day(s).
| Time | Temp. | Humidity | Pressure | Rain* | Wind** | Luminosity | Snow |
|---|---|---|---|---|---|---|---|
| 1777452919 | 10° C | 36% | 1030.6 hPa | 0 mm | 0.89 m/s, 38° | - | - |
| 1777452607 | 10° C | 35% | 1030.6 hPa | 0 mm | 0.45 m/s, 28° | - | - |
| 1777452319 | 8.89° C | 36% | 1030.6 hPa | 0 mm | 0.89 m/s, 96° | - | - |
| 1777452007 | 8.89° C | 37% | 1030.7 hPa | 0 mm | 0.89 m/s, 23° | - | - |
| 1777451719 | 8.89° C | 35% | 1030.7 hPa | 0 mm | 0.89 m/s, 359° | - | - |
| 1777451407 | 8.89° C | 35% | 1030.7 hPa | 0 mm | 0.45 m/s, 35° | - | - |
| 1777451132 | 8.89° C | 34% | 1030.6 hPa | 0 mm | 0.89 m/s, 42° | - | - |
| 1777450819 | 8.89° C | 39% | 1030.6 hPa | 0 mm | 0.89 m/s, 30° | - | - |
| 1777450507 | 8.89° C | 34% | 1030.6 hPa | 0 mm | 0.89 m/s, 12° | - | - |
| 1777450219 | 8.89° C | 34% | 1030.6 hPa | 0 mm | 0.89 m/s, 37° | - | - |
| 1777449907 | 8.89° C | 36% | 1030.4 hPa | 0 mm | 1.34 m/s, 331° | - | - |
| 1777449619 | 8.89° C | 37% | 1030.3 hPa | 0 mm | 1.34 m/s, 6° | - | - |
| 1777449307 | 8.89° C | 36% | 1030.3 hPa | 0 mm | 0.89 m/s, 17° | - | - |
| 1777449020 | 8.89° C | 36% | 1030.2 hPa | 0 mm | 0.89 m/s, 300° | - | - |
| 1777448707 | 8.89° C | 35% | 1030.2 hPa | 0 mm | 0.89 m/s, 4° | - | - |
| 1777448419 | 8.89° C | 37% | 1030.1 hPa | 0 mm | 1.34 m/s, 14° | - | - |
| 1777448107 | 8.89° C | 37% | 1030 hPa | 0 mm | 0.89 m/s, 354° | - | - |
| 1777447819 | 8.89° C | 36% | 1030 hPa | 0 mm | 0.45 m/s, 50° | - | - |
| 1777447507 | 7.78° C | 37% | 1030 hPa | 0 mm | 0.89 m/s, 28° | - | - |
| 1777447220 | 8.89° C | 39% | 1030.1 hPa | 0 mm | 1.79 m/s, 7° | - | - |
| 1777446907 | 7.78° C | 39% | 1029.9 hPa | 0 mm | 0.89 m/s, 68° | - | - |
| 1777446619 | 7.78° C | 40% | 1029.9 hPa | 0 mm | 0.89 m/s, 50° | - | - |
| 1777446307 | 7.78° C | 40% | 1029.8 hPa | 0 mm | 0.89 m/s, 29° | - | - |
| 1777446020 | 7.78° C | 40% | 1029.7 hPa | 0 mm | 0.89 m/s, 38° | - | - |
| 1777445707 | 7.78° C | 42% | 1029.7 hPa | 0 mm | 1.34 m/s, 30° | - | - |
* Rain latest hour (hover to see other rain measurements)
** Current wind speed in m/s (hover to see current wind gust speed)